Regional Weather Roundup
Issued by NWS

Home | Current Version | Previous Version | Text Only | Print | Product List | Glossary On
Versions: 1 2 3 4 5 6 7 8 9 10 11 12 13 14 15 16 17 18 19 20 21 22 23 24 25 26 27 28 29 30 31 32 33 34 35 36 37 38 39 40 41 42 43 44 45 46 47 48 49 50
000
ASUS43 KLSX 182307
RWRMO

WEATHER SUMMARY FOR MISSOURI
NATIONAL WEATHER SERVICE SPRINGFIELD MO
600 PM CDT SAT APR 18 2015

NOTE: "FAIR" INDICATES FEW OR NO CLOUDS BELOW 12,000 FEET WITH NO
       SIGNIFICANT WEATHER AND/OR OBSTRUCTIONS TO VISIBILITY.
       CURRENT SKY AND/OR WEATHER CONDITIONS ARE NOT AVAILABLE FOR
       CHILLICOTHE AND FARMINGTON.

MOZ001>031-035>038-043-044-053-054-190000-
...NORTHERN AND WESTERN MISSOURI...

CITY           SKY/WX    TMP DP  RH WIND       PRES   REMARKS
KANSAS CTY INT PTSUNNY   62  59  90 SE9       29.84S
KANSAS C DTWN  PTSUNNY   65  59  81 SE8       29.83F
LEE`S SUMMIT   CLOUDY    64  58  80 S6        29.85F
ST JOSEPH      PTSUNNY   63  58  83 SE8       29.84F
CHILLICOTHE      N/A     64  60  87 VRB5      29.88F
KIRKSVILLE     CLOUDY    63  59  87 W5        29.89F

$$
MOZ066>068-077>081-088>096-101>105-190000-
...SOUTHWEST MISSOURI...

CITY           SKY/WX    TMP DP  RH WIND       PRES   REMARKS
SPRINGFIELD    CLOUDY    67  57  70 E7        29.88S
JOPLIN         CLOUDY    69  58  67 E9        29.85F

$$
MOZ032>034-039>042-045>050-055>058-069>072-190000-
...CENTRAL MISSOURI...

CITY           SKY/WX    TMP DP  RH WIND       PRES   REMARKS
COLUMBIA       CLOUDY    65  60  84 NW5       29.88S
JEFFERSON CITY PTSUNNY   67  60  78 NW6       29.87F
ROLLA          PTSUNNY   69  58  67 NW8       29.86S
SEDALIA        CLOUDY    64  59  83 CALM      29.88F
WHITEMAN AFB   CLOUDY    63  59  86 E6        29.86F
WARRENSBURG    CLOUDY    63  57  82 E3        29.86F
OSAGE BEACH    PTSUNNY   64  59  82 W3        29.88S

$$
MOZ051-052-059>065-190000-
...EAST CENTRAL MISSOURI...

CITY           SKY/WX    TMP DP  RH WIND       PRES   REMARKS
ST LOUIS INTL  PTSUNNY   77  57  50 E8        29.87F
SPIRIT OF STL  PTSUNNY   77  57  50 E8        29.85F
ST CHARLES     PTSUNNY   76  57  51 E13       29.86F

$$
MOZ072>076-082>087-097>100-106>115-190000-
...SOUTH CENTRAL AND SOUTHEAST MISSOURI...

CITY           SKY/WX    TMP DP  RH WIND       PRES   REMARKS
CAPE GIRARDEAU CLOUDY    75  61  61 SE5       29.86F
FARMINGTON     PTSUNNY   73  55  53 S7        29.91F
POPLAR BLUFF   CLOUDY    75  60  59 E5        29.85F
WEST PLAINS    CLOUDY    72  56  57 VRB6      29.89R

$$



USA.gov is the U.S. government's official web portal to all federal, state and local government web resources and services.